Zurück zum Katalog

STARLINK-33682

AktivKommunikationVLEO
NORAD 63433·PAYLOAD·🇺🇸 United States

Gestartet Apr 4, 2025 von Vandenberg Space Force Base

Loading…

Nächste Überflüge (nächste 24 Stunden)

TLE

AktuellSource: CelesTrak SupGP

Epoche: Sep 14, 2026, 22:20 UTC

1 63433C 25069A   26257.93104167 -.00005615  00000+0 -16591-3 0  2574
2 63433  53.1600 334.0689 0001077  76.6320 176.8209 15.34388257    18

Verfolge STARLINK-33682 in Echtzeit mit AllMySat

Download on the App Store